Regional Weather Roundup
Issued by NWS

Home | Current Version | Previous Version | Graphics & Text | Print | Product List | Glossary On
Versions: 1 2 3 4 5 6 7 8 9 10 11 12 13 14 15 16 17 18 19 20 21 22 23 24 25 26 27 28 29 30 31 32 33 34 35 36 37 38 39 40 41 42 43 44 45 46 47 48 49 50
000
ASUS43 KLOT 231810
RWRIL

ILLINOIS REGIONAL WEATHER ROUNDUP
NATIONAL WEATHER SERVICE CHICAGO/ROMEOVILLE IL
100 PM CDT THU OCT 23 2014

NOTE: "FAIR" INDICATES FEW OR NO CLOUDS BELOW 12,000 FEET WITH NO
SIGNIFICANT WEATHER AND/OR OBSTRUCTIONS TO VISIBILITY.

* THESE STATIONS ARE NOT UNDER NWS QUALITY CONTROL. THEY ALSO MAY NOT
  REPORT WEATHER SUCH AS PRECIPITATION OR FOG.

ILZ001-002-007-009-015-016-024-231900-
NORTHWEST ILLINOIS

CITY           SKY/WX    TMP DP  RH WIND       PRES   REMARKS
MOLINE         CLOUDY    59  44  57 S13       30.09F
6HR MIN TEMP:  40; 6HR MAX TEMP:  59;

STERLING*      CLOUDY    61  43  51 S7G16     30.11F
SAVANNA*       CLOUDY    57  43  59 S10       30.10S
$$

ILZ003-004-008-010-011-017-018-231900-
NORTH CENTRAL ILLINOIS

CITY           SKY/WX    TMP DP  RH WIND       PRES   REMARKS
ROCKFORD       CLOUDY    60  43  53 S14       30.12F
6HR MIN TEMP:  37; 6HR MAX TEMP:  60;

FREEPORT*      CLOUDY    56  43  60 S12G17    30.11F
ROCHELLE*      CLOUDY    58  42  53 S10G18    30.12F
DE KALB*       PTSUNNY   55  42  60 S13       30.13F
PERU*          PTSUNNY   58  43  57 S14       30.14F
$$

ILZ005-006-012>014-019>023-231900-
NORTHEAST ILLINOIS

CITY           SKY/WX    TMP DP  RH WIND       PRES   REMARKS
CHICAGO-OHARE  PTSUNNY   58  41  53 S12       30.14F
6HR MIN TEMP:  36; 6HR MAX TEMP:  58;

CHICAGO-MIDWAY MOSUNNY   60  41  49 S9        30.15F
6HR MIN TEMP:  41; 6HR MAX TEMP:  60;

AURORA         MOSUNNY   60  41  49 S13       30.14F
6HR MIN TEMP:  35; 6HR MAX TEMP:  60;

LANSING*       SUNNY     57  43  58 S9        30.18F
JOLIET*        MOSUNNY   59  42  52 S8        30.15F
WAUKEGAN       PTSUNNY   59  42  53 SW8       30.13F
6HR MIN TEMP:  34; 6HR MAX TEMP:  59;

DUPAGE AIRPORT PTSUNNY   58  43  57 S12G18    30.13F
6HR MIN TEMP:  35; 6HR MAX TEMP:  60;

KANKAKEE*      MOSUNNY   60  44  54 S5        30.18F
WHEELING       MOSUNNY   60  41  49 S10       30.15F
6HR MIN TEMP:  33; 6HR MAX TEMP:  60;

MORRIS*        MOSUNNY   58  43  57 S9        30.14F
ROMEOVILLE*    MOSUNNY   58  40  52 SW9       30.15F
NORTHERLY ISL    N/A     58  40  51 S7          N/A
$$

LMZ740>746-231900-
SOUTHERN LAKE MICHIGAN

STATION/POSITION SKY/WX   TEMP    WIND        PRES    VSBY  WAVE
                          AIR SEA DIR/SP/G                  HT/PER
                          (F)     (DEG/KT/KT) (MB)    (MI)  (FT/S)
SOUTHERN BUOY              52 54  190/ 14/ 16 1021.9F         2/ 4
WAUKEGAN HARBOR            58     160/  8/ 23   N/A
HARRISON CRIB              54     200/ 13/ 16   N/A
BURNHAM HARBOR             59     140/  9/ 12   N/A
CALUMET HARBOR             56     180/  8/ 12 1020.4F
MICHIGAN CITY              54     190/  9/ 11   N/A
$$

ILZ025>027-034>036-040-047-049-050-058-095>099-231900-
WEST-CENTRAL ILLINOIS

CITY           SKY/WX    TMP DP  RH WIND       PRES   REMARKS
QUINCY         CLOUDY    58  46  64 S7        30.12F
GALESBURG*     LGT RAIN  54  44  68 SE10G17   30.11F
MACOMB*        CLOUDY    58  45  62 S12       30.14F
JACKSONVILLE*  CLOUDY    61  46  57 S10       30.15F
PITTSFIELD*    CLOUDY    61  45  55 S8        30.14F
$$

ILZ028>032-037-038-041>044-048-051>054-059>061-231900-
CENTRAL ILLINOIS

CITY           SKY/WX    TMP DP  RH WIND       PRES   REMARKS
PONTIAC        CLOUDY    58  43  58 S9        30.17F
BLOOMINGTON    CLOUDY    56  44  64 SW15G21   30.19F
DECATUR        CLOUDY    58  44  60 SW10      30.19F
PEORIA         CLOUDY    57  44  62 S12       30.15F
6HR MIN TEMP:  41; 6HR MAX TEMP:  57;

LACON*         CLOUDY    56  42  60 S9G16     30.15S
LINCOLN*       CLOUDY    58  44  58 S3        30.17F
SPRINGFIELD    CLOUDY    58  44  60 VRB7      30.18F
6HR MIN TEMP:  40; 6HR MAX TEMP:  58;

TAYLORVILLE    CLOUDY    57  41  54 SW12      30.19F
$$

ILZ033-039-045-046-055>057-062-063-231900-
EAST-CENTRAL ILLINOIS

CITY           SKY/WX    TMP DP  RH WIND       PRES   REMARKS
CHAMPAIGN      CLOUDY    57  41  55 S10       30.19F
DANVILLE*      PTSUNNY   58  43  57 W5        30.17F
RANTOUL*       PTSUNNY   58  43  56 SW8       30.18F
MATTOON        PTSUNNY   56  42  59 S9        30.19F
PARIS*         CLOUDY    57  45  63 S3        30.20F
$$

ILZ079-100>102-231900-
SOUTHWEST ILLINOIS

CITY           SKY/WX    TMP DP  RH WIND       PRES   REMARKS
ALTON          CLOUDY    59  43  55 W9        30.19F
BELLEVILLE     MOSUNNY   59  45  59 VRB5      30.18F
CAHOKIA*       CLOUDY    61  44  53 SW7       30.18F
SPARTA*        CLOUDY    58  44  60 SW7       30.20F
$$

ILZ064>066-069>071-074>076-080>082-084>086-088>090-092>094-231900-
SOUTH-CENTRAL ILLINOIS

CITY           SKY/WX    TMP DP  RH WIND       PRES   REMARKS
CARBONDALE     PTSUNNY   59  42  53 S5        30.20F
CAIRO*         CLOUDY    60  44  55 CALM      30.20F
EFFINGHAM*     PTSUNNY   60  41  49 S6        30.19F
MARION         PTSUNNY   61  45  55 SW6       30.21F
MT. VERNON     CLOUDY    61  45  55 S7        30.19F
CENTRALIA*     CLOUDY    59  43  55 S7        30.20S
SALEM*         PTSUNNY   61  46  58 S7        30.19F
METROPOLIS*    PTSUNNY   58  46  62 CALM      30.20F
$$

ILZ067-068-072-073-078-083-087-091-231900-
SOUTHEAST ILLINOIS

CITY           SKY/WX    TMP DP  RH WIND       PRES   REMARKS
LAWRENCEVILLE  MOSUNNY   59  42  53 VRB6      30.20F
FLORA*         MOSUNNY   58  43  56 S7        30.20F
FAIRFIELD*     PTSUNNY   58  43  56 S6        30.19F
HARRISBURG*    PTSUNNY   60  42  52 E3        30.21F
ROBINSON*      PTSUNNY   60  44  54 SE6       30.21F
CARMI*         PTSUNNY   62  45  53 CALM      30.20F
$$

ABBREVIATIONS USED IN REMARKS
   TC - TEMPERATURE IN CELSIUS
  WCI - WIND CHILL INDEX
   HX - HEAT INDEX
  VSB - VISIBILITY
$$




USA.gov is the U.S. government's official web portal to all federal, state and local government web resources and services.